This is the latest recevied weather packets stored in our database for station/object VK4HIT-13. If no packets are shown the sender has not sent any weather packets the latest 10 day(s).
| Time | Temp. | Humidity | Pressure | Rain* | Wind** | Luminosity | Snow |
|---|---|---|---|---|---|---|---|
| 1777779575 | 25° C | 56% | 1018.6 hPa | 0 mm | - | - | - |
| 1777779275 | 25.56° C | 56% | 1018.7 hPa | 0 mm | - | - | - |
| 1777778975 | 26.11° C | 55% | 1018.8 hPa | 0 mm | - | - | - |
| 1777778675 | 25.56° C | 57% | 1018.7 hPa | 0 mm | - | - | - |
| 1777778375 | 25.56° C | 58% | 1018.9 hPa | 0 mm | - | - | - |
| 1777778075 | 25.56° C | 58% | 1019 hPa | 0 mm | - | - | - |
| 1777777775 | 25.56° C | 57% | 1019 hPa | 0 mm | - | - | - |
| 1777777475 | 25° C | 59% | 1019.1 hPa | 0 mm | - | - | - |
| 1777777175 | 25° C | 60% | 1019.2 hPa | 0 mm | - | - | - |
| 1777776875 | 25° C | 59% | 1019.2 hPa | 0 mm | - | - | - |
| 1777776575 | 25° C | 59% | 1019.2 hPa | 0 mm | - | - | - |
| 1777776275 | 25° C | 60% | 1019.2 hPa | 0 mm | - | - | - |
| 1777775975 | 25° C | 61% | 1019.3 hPa | 0 mm | - | - | - |
| 1777775675 | 25° C | 60% | 1019.4 hPa | 0 mm | - | - | - |
| 1777775375 | 24.44° C | 60% | 1019.5 hPa | 0 mm | - | - | - |
| 1777775075 | 23.89° C | 60% | 1019.7 hPa | 0 mm | - | - | - |
| 1777774775 | 23.89° C | 62% | 1019.8 hPa | 0 mm | - | - | - |
| 1777774475 | 23.89° C | 63% | 1019.9 hPa | 0 mm | - | - | - |
| 1777774175 | 23.33° C | 63% | 1020 hPa | 0 mm | - | - | - |
| 1777773875 | 23.33° C | 65% | 1020.1 hPa | 0 mm | - | - | - |
| 1777773575 | 23.33° C | 64% | 1020.1 hPa | 0 mm | - | - | - |
| 1777773275 | 23.33° C | 65% | 1020.1 hPa | 0 mm | - | - | - |
| 1777772975 | 23.33° C | 64% | 1020.3 hPa | 0 mm | - | - | - |
| 1777772675 | 23.89° C | 64% | 1020.2 hPa | 0 mm | - | - | - |
| 1777772375 | 23.89° C | 64% | 1020.3 hPa | 0 mm | - | - | - |
* Rain latest hour (hover to see other rain measurements)
** Current wind speed in m/s (hover to see current wind gust speed)